MST,Max TemperatureF,Mean TemperatureF,Min TemperatureF,Max Dew PointF,MeanDew PointF,Min DewpointF,Max Humidity, Mean Humidity, Min Humidity, Max Sea Level PressureIn, Mean Sea Level PressureIn, Min Sea Level PressureIn, Max VisibilityMiles, Mean VisibilityMiles, Min VisibilityMiles, Max Wind SpeedMPH, Mean Wind SpeedMPH, Max Gust SpeedMPH,PrecipitationIn, CloudCover, Events, WindDirDegrees
2012-11-1,79,57,35,30,24,18,64,38,12,30.03,29.91,29.75,,,,23,12,31,0.00,,,234
2012-11-2,73,56,38,32,23,13,65,41,17,30.04,29.87,29.72,,,,24,13,31,0.00,,,12
2012-11-3,61,47,32,34,29,26,82,55,28,30.21,30.14,30.07,,,,20,8,22,0.00,,,221
2012-11-4,71,52,32,29,25,17,70,42,14,30.17,30.09,29.99,,,,17,9,21,0.00,,,334
2012-11-5,65,51,36,33,29,28,70,48,26,30.24,30.13,30.05,,,,16,7,20,0.00,,,314
2012-11-6,68,54,39,37,31,26,67,48,29,30.19,30.13,30.06,,,,21,7,25,0.00,,,318
2012-11-7,76,56,35,33,28,23,76,46,16,30.11,29.93,29.75,,,,15,7,20,0.00,,,239
2012-11-8,76,59,41,34,25,18,60,37,14,29.82,29.75,29.70,,,,23,11,28,0.00,,,308
2012-11-9,77,59,41,38,27,21,65,39,13,29.69,29.60,29.52,,,,28,13,36,0.00,,,244
2012-11-10,71,54,36,44,28,6,62,42,22,29.65,29.51,29.37,,,,46,22,66,0.00,,,255
2012-11-11,38,31,23,24,19,6,85,57,29,30.27,30.03,29.72,,,,21,10,28,0.00,,,14
2012-11-12,52,33,13,12,0,-9,88,48,8,30.40,30.34,30.28,,,,14,7,17,0.00,,,255
2012-11-13,59,44,29,12,4,-3,36,24,11,30.28,30.18,30.06,,,,20,11,24,0.00,,,296
2012-11-14,64,43,22,18,10,7,50,31,12,30.30,30.16,29.99,,,,26,11,32,0.00,,,247
2012-11-15,58,42,25,29,22,12,69,50,30,30.38,30.24,29.98,,,,26,15,31,0.00,,,7
2012-11-16,58,40,22,27,22,17,81,53,25,30.36,30.22,30.04,,,,26,14,32,0.00,,,226
2012-11-17,71,52,33,33,24,19,67,42,16,30.08,30.00,29.90,,,,18,10,24,0.00,,,217
2012-11-18,69,52,35,31,24,19,70,43,16,30.04,29.93,29.86,,,,18,7,22,0.00,,,282
2012-11-19,66,50,33,24,22,20,56,38,19,30.20,30.11,29.98,,,,22,9,28,0.00,,,324
2012-11-20,69,50,31,21,17,14,61,37,12,30.25,30.14,30.04,,,,23,10,28,0.00,,,233
2012-11-21,73,54,35,34,19,6,50,29,8,30.04,29.90,29.77,,,,25,13,32,0.00,,,236
2012-11-22,67,47,26,27,17,10,55,35,14,30.41,30.04,29.76,,,,23,13,28,0.00,,,8
2012-11-23,51,35,19,14,12,9,62,42,21,30.58,30.44,30.26,,,,20,9,25,0.00,,,250
2012-11-24,75,49,23,20,11,4,60,33,6,30.21,29.97,29.82,,,,15,6,16,0.00,,,292
2012-11-25,60,42,24,21,15,6,63,42,21,29.96,29.86,29.79,,,,15,7,16,0.00,,,207
2012-11-26,35,28,21,25,21,17,92,76,59,30.43,30.26,29.90,,,,23,10,26,0.00,,,12
2012-11-27,66,43,19,25,16,7,88,51,13,30.34,30.19,30.06,,,,21,8,26,0.00,,,242
2012-11-28,62,42,21,22,13,2,52,35,17,30.27,30.13,29.96,,,,15,8,17,0.00,,,275
2012-11-29,70,50,30,20,14,7,41,27,12,30.01,29.95,29.86,,,,23,10,29,0.00,,,311
2012-11-30,66,49,31,22,19,14,51,34,16,30.04,29.90,29.72,,,,17,8,22,0.00,,,248